Miscellaneous Local Product
Issued by NWS Hastings, NE

Home | Current Version | Previous Version | Graphics & Text | Print | Product List | Glossary On
Versions: 1 2 3 4 5 6 7 8 9 10 11 12 13 14 15 16 17 18 19 20 21 22 23 24 25 26 27 28 29 30 31 32 33 34 35 36 37 38 39 40 41 42 43 44 45 46 47 48 49 50
000
AXUS43 KGID 191502
MISGRI

GID CWA HOURLY WEATHER ROUNDUP
NATIONAL WEATHER SERVICE HASTINGS NE
900 AM CST SUN FEB 19 2017

NOTE: "FAIR" INDICATES FEW OR NO CLOUDS BELOW 12,000 FEET WITH NO
SIGNIFICANT WEATHER AND/OR OBSTRUCTIONS TO VISIBILITY.

...SOUTH CENTRAL NEBRASKA...

CITY           SKY/WX    TMP DP  RH WIND       PRES   REMARKS
GRAND ISLAND   MOSUNNY   47  46  97 S15       29.82R FOG
HASTINGS       MOSUNNY   48  45  89 S9        29.84R FOG
KEARNEY        PTSUNNY   48  45  87 S15G21    29.80S
ORD            MOSUNNY   49  44  83 S12       29.76R
YORK           CLOUDY    48  46  93 S10       29.84S
AURORA         CLOUDY    48  46  93 S7        29.82S
LEXINGTON      MOSUNNY   47  44  90 S10       29.76R
HOLDREGE       CLOUDY    47  46  94 S13G20    29.79R FOG
HEBRON         MOSUNNY   50  48  91 S10G16    29.87S

...NEBRASKA PANHANDLE...

CITY           SKY/WX    TMP DP  RH WIND       PRES   REMARKS
CHADRON        CLOUDY    42  30  62 SW6       29.62R
ALLIANCE       CLOUDY    29  26  89 CALM      29.65R
SCOTTSBLUFF    CLOUDY    34  27  75 CALM      29.66S
SIDNEY         CLOUDY    37  26  64 W7        29.68R WCI  32

...WESTERN AND NORTH CENTRAL NEBRASKA...

CITY           SKY/WX    TMP DP  RH WIND       PRES   REMARKS
VALENTINE      CLOUDY    46  34  62 S16       29.63F
AINSWORTH      CLOUDY    46  38  75 S12       29.68R
ONEILL         CLOUDY    48  43  83 S13G18    29.73R
BROKEN BOW     MOSUNNY   45  42  89 SE8       29.74S
IMPERIAL       CLOUDY    46  35  65 SE6       29.71R
NORTH PLATTE   MOSUNNY   49  40  71 SE10      29.72R
MCCOOK         CLOUDY    51  46  83 S8        29.74S

...EASTERN NEBRASKA...

CITY           SKY/WX    TMP DP  RH WIND       PRES   REMARKS
NORFOLK        MOSUNNY   49  44  83 S13       29.79F
SO SIOUX CITY  CLOUDY    42  36  79 SE13      29.85F
TEKAMAH        MOSUNNY   42  38  85 SE5       29.88S
COLUMBUS       CLOUDY    46  43  87 SE5       29.83F
ALBION         CLOUDY    45  42  90 SE8       29.79S FOG
OMAHA EPPLEY   PTSUNNY   50  43  77 S10       29.89S
OFFUTT AFB     MOSUNNY   50  50 100 S8        29.90S
MILLARD        MOSUNNY   49  43  80 SE7       29.90S
LINCOLN        MOSUNNY   49  46  90 S10       29.89S
NEBRASKA CITY  PTSUNNY   48  45  91 S9        29.92S
BEATRICE       MOSUNNY   50  48  92 S7        29.90S
FALLS CITY     PTSUNNY   48  47  96 SE7       29.92F FOG

...NORTHERN KANSAS...

CITY           SKY/WX    TMP DP  RH WIND       PRES   REMARKS
GOODLAND       CLOUDY    48  37  65 S9        29.72R
HILL CITY      CLOUDY    50  48  93 S5        29.82R FOG
NORTON         SUNNY     48  43  81 S12G20    29.79R
PHILLIPSBURG   SUNNY     46  46 100 E6        29.83S FOG
SMITH CENTER   SUNNY     46  46 100 SE7       29.86S FOG
HAYS           FOG       47  47 100 S9        29.85R VSB 1/4
RUSSELL        FOG       48  47  96 S15       29.83F VSB 1/4
CONCORDIA      MOSUNNY   50  49  96 S16G22    29.88R FOG
SALINA         FOG       51  49  92 S14       29.91R VSB 3/4
TOPEKA         MOSUNNY   50  48  93 VRB3      29.96R FOG



USA.gov is the U.S. government's official web portal to all federal, state and local government web resources and services.